When you browse on this site, cookies collect data to enhance your experience and personalize the content and advertising you see.
Visit our Privacy Policy to learn more. By continuing to use the site, you agree to this use of cookies and data.
  • In Latvia
  • List of Countries
  • For 7 days
  • Water Temperature
  • Satellite Maps
  • Weather Map
  • Weather Widgets
  • user-avatar
    Login

    Hourly Weather Koknese

    Today, 27 May, Monday

    Time Temperature Precipitation Wind Pressure Humidity
    00:00 +8°C° 0 mm 4 mps 745 mmHg 95%
    01:00 +8°C° 0 mm 4 mps 745 mmHg 96%
    02:00 +9°C° 0 mm 3 mps 745 mmHg 97%
    03:00 +9°C° 0 mm 3 mps 745 mmHg 97%
    04:00 +9°C° 0 mm 3 mps 745 mmHg 96%
    05:00 +9°C° 0 mm 3 mps 745 mmHg 96%
    06:00 +9°C° 0 mm 3 mps 745 mmHg 93%
    07:00 +10°C° 0 mm 3 mps 745 mmHg 90%
    08:00 +11°C° 0 mm 3 mps 745 mmHg 86%
    09:00 +12°C° 0.7 mm 2 mps 745 mmHg 90%
    10:00 +12°C° 0.7 mm 2 mps 745 mmHg 93%
    11:00 +12°C° 0.7 mm 1 mps 745 mmHg 96%
    12:00 +12°C° 1.5 mm 1 mps 745 mmHg 97%
    13:00 +13°C° 1.5 mm 1 mps 745 mmHg 97%
    14:00 +13°C° 1.5 mm 2 mps 745 mmHg 98%
    15:00 +14°C° 0.3 mm 2 mps 745 mmHg 97%
    16:00 +13°C° 0.3 mm 3 mps 745 mmHg 96%
    17:00 +14°C° 0.3 mm 3 mps 745 mmHg 95%
    18:00 +14°C° 0 mm 3 mps 745 mmHg 95%
    19:00 +14°C° 0 mm 3 mps 746 mmHg 95%
    20:00 +14°C° 0 mm 3 mps 746 mmHg 95%
    21:00 +13°C° 0 mm 3 mps 746 mmHg 96%
    22:00 +12°C° 0 mm 3 mps 747 mmHg 97%
    23:00 +12°C° 0 mm 2 mps 747 mmHg 97%

    Tomorrow, 28 May, Tuesday

    Time Temperature Precipitation Wind Pressure Humidity
    00:00 +10°C° 0 mm 2 mps 747 mmHg 98%
    01:00 +9°C° 0 mm 2 mps 748 mmHg 98%
    02:00 +8°C° 0 mm 2 mps 748 mmHg 98%
    03:00 +8°C° 0 mm 2 mps 748 mmHg 98%
    04:00 +7°C° 0 mm 2 mps 748 mmHg 98%
    05:00 +8°C° 0 mm 1 mps 748 mmHg 98%
    06:00 +10°C° 0 mm 1 mps 748 mmHg 92%
    07:00 +12°C° 0 mm 1 mps 748 mmHg 85%
    08:00 +14°C° 0 mm 1 mps 748 mmHg 79%
    09:00 +16°C° 0 mm 1 mps 748 mmHg 73%
    10:00 +18°C° 0 mm 1 mps 748 mmHg 66%
    11:00 +19°C° 0 mm 2 mps 747 mmHg 60%
    12:00 +18°C° 1.3 mm 2 mps 747 mmHg 72%
    13:00 +17°C° 1.3 mm 2 mps 746 mmHg 84%
    14:00 +17°C° 1.3 mm 3 mps 745 mmHg 96%
    15:00 +17°C° 0.7 mm 3 mps 745 mmHg 95%
    16:00 +18°C° 0.7 mm 3 mps 744 mmHg 94%
    17:00 +19°C° 0.7 mm 3 mps 744 mmHg 94%
    18:00 +19°C° 0.2 mm 3 mps 744 mmHg 95%
    19:00 +18°C° 0.2 mm 2 mps 744 mmHg 95%
    20:00 +18°C° 0.2 mm 2 mps 744 mmHg 96%
    21:00 +18°C° 0.2 mm 2 mps 744 mmHg 97%
    22:00 +17°C° 0.2 mm 2 mps 744 mmHg 98%
    23:00 +16°C° 0.2 mm 1 mps 745 mmHg 98%

    Day after tomorrow, 29 May, Wednesday

    Time Temperature Precipitation Wind Pressure Humidity
    00:00 +16°C° 0.1 mm 1 mps 745 mmHg 98%
    01:00 +15°C° 0.1 mm 2 mps 745 mmHg 98%
    02:00 +14°C° 0.1 mm 2 mps 746 mmHg 99%
    03:00 +13°C° 0.1 mm 2 mps 746 mmHg 98%
    04:00 +12°C° 0.1 mm 2 mps 746 mmHg 98%
    05:00 +10°C° 0.1 mm 2 mps 747 mmHg 97%
    06:00 +12°C° 0.1 mm 2 mps 747 mmHg 96%
    07:00 +12°C° 0.1 mm 2 mps 748 mmHg 95%
    08:00 +13°C° 0.1 mm 2 mps 748 mmHg 94%
    09:00 +13°C° 1 mm 2 mps 749 mmHg 95%
    10:00 +13°C° 1 mm 2 mps 749 mmHg 95%
    11:00 +13°C° 1 mm 2 mps 750 mmHg 96%
    12:00 +13°C° 0.4 mm 2 mps 750 mmHg 94%
    13:00 +13°C° 0.4 mm 2 mps 751 mmHg 92%
    14:00 +13°C° 0.4 mm 2 mps 751 mmHg 90%
    15:00 +14°C° 0 mm 2 mps 752 mmHg 80%
    16:00 +15°C° 0 mm 2 mps 752 mmHg 71%
    17:00 +16°C° 0 mm 2 mps 752 mmHg 61%
    18:00 +15°C° 0 mm 2 mps 753 mmHg 62%
    19:00 +13°C° 0 mm 2 mps 753 mmHg 64%
    20:00 +12°C° 0 mm 2 mps 753 mmHg 65%
    21:00 +9°C° 0 mm 2 mps 754 mmHg 66%
    22:00 +7°C° 0 mm 2 mps 755 mmHg 67%
    23:00 +5°C° 0 mm 2 mps 755 mmHg 68%

    30 May, Thursday

    Time Temperature Precipitation Wind Pressure Humidity
    00:00 +4°C° 0 mm 2 mps 755 mmHg 74%
    01:00 +4°C° 0 mm 2 mps 756 mmHg 79%
    02:00 +3°C° 0 mm 2 mps 756 mmHg 84%
    03:00 +5°C° 0 mm 1 mps 756 mmHg 86%
    04:00 +5°C° 0 mm 1 mps 756 mmHg 88%
    05:00 +5°C° 0 mm 1 mps 757 mmHg 89%
    06:00 +7°C° 0 mm 1 mps 757 mmHg 78%
    07:00 +10°C° 0 mm 1 mps 757 mmHg 67%
    08:00 +12°C° 0 mm 1 mps 757 mmHg 57%
    09:00 +15°C° 0 mm 1 mps 757 mmHg 50%
    10:00 +18°C° 0 mm 1 mps 757 mmHg 44%
    11:00 +18°C° 0 mm 0 mps 757 mmHg 37%
    12:00 +20°C° 0 mm 1 mps 756 mmHg 35%
    13:00 +21°C° 0 mm 1 mps 756 mmHg 33%
    14:00 +21°C° 0 mm 1 mps 756 mmHg 32%
    15:00 +20°C° 0 mm 2 mps 756 mmHg 34%
    16:00 +19°C° 0 mm 2 mps 756 mmHg 36%
    17:00 +19°C° 0 mm 2 mps 756 mmHg 38%
    18:00 +17°C° 0 mm 2 mps 756 mmHg 49%
    19:00 +16°C° 0 mm 2 mps 756 mmHg 60%
    20:00 +14°C° 0 mm 1 mps 756 mmHg 71%
    21:00 +12°C° 0 mm 1 mps 756 mmHg 75%
    22:00 +11°C° 0 mm 1 mps 756 mmHg 78%
    23:00 +9°C° 0 mm 1 mps 756 mmHg 81%

    31 May, Friday

    Time Temperature Precipitation Wind Pressure Humidity
    00:00 +9°C° 0 mm 1 mps 756 mmHg 82%
    01:00 +8°C° 0 mm 1 mps 756 mmHg 82%
    02:00 +8°C° 0 mm 1 mps 756 mmHg 82%
    03:00 +8°C° 0 mm 1 mps 756 mmHg 83%
    04:00 +9°C° 0 mm 1 mps 756 mmHg 83%
    05:00 +9°C° 0 mm 1 mps 756 mmHg 84%
    06:00 +10°C° 0 mm 2 mps 756 mmHg 76%
    07:00 +14°C° 0 mm 2 mps 755 mmHg 69%
    08:00 +16°C° 0 mm 2 mps 755 mmHg 61%
    09:00 +17°C° 0 mm 2 mps 755 mmHg 55%
    10:00 +19°C° 0 mm 2 mps 755 mmHg 48%
    11:00 +21°C° 0 mm 2 mps 755 mmHg 41%
    12:00 +21°C° 0 mm 2 mps 754 mmHg 40%
    13:00 +23°C° 0 mm 2 mps 754 mmHg 39%
    14:00 +24°C° 0 mm 2 mps 754 mmHg 38%
    15:00 +23°C° 0 mm 2 mps 754 mmHg 41%
    16:00 +23°C° 0 mm 2 mps 754 mmHg 43%
    17:00 +23°C° 0 mm 2 mps 753 mmHg 46%
    18:00 +22°C° 0 mm 1 mps 753 mmHg 55%
    19:00 +20°C° 0 mm 1 mps 753 mmHg 65%
    20:00 +16°C° 0 mm 0 mps 753 mmHg 74%
    21:00 +15°C° 0 mm 0 mps 753 mmHg 77%
    22:00 +14°C° 0 mm 0 mps 753 mmHg 80%
    23:00 +12°C° 0 mm 0 mps 753 mmHg 83%

    1 June, Saturday

    Time Temperature Precipitation Wind Pressure Humidity
    00:00 +12°C° 0 mm 0 mps 753 mmHg 84%
    01:00 +12°C° 0 mm 0 mps 753 mmHg 85%
    02:00 +11°C° 0 mm 0 mps 753 mmHg 85%
    03:00 +12°C° 0 mm 1 mps 753 mmHg 86%
    04:00 +12°C° 0 mm 1 mps 753 mmHg 87%
    05:00 +12°C° 0 mm 1 mps 754 mmHg 89%
    06:00 +14°C° 0 mm 2 mps 754 mmHg 84%
    07:00 +15°C° 0 mm 2 mps 754 mmHg 78%
    08:00 +16°C° 0 mm 2 mps 754 mmHg 73%
    09:00 +17°C° 0 mm 2 mps 754 mmHg 69%
    10:00 +18°C° 0 mm 3 mps 755 mmHg 65%
    11:00 +19°C° 0 mm 3 mps 755 mmHg 60%
    12:00 +19°C° 0 mm 4 mps 755 mmHg 60%
    13:00 +19°C° 0 mm 4 mps 756 mmHg 59%
    14:00 +19°C° 0 mm 4 mps 756 mmHg 58%
    15:00 +19°C° 0 mm 4 mps 756 mmHg 60%
    16:00 +17°C° 0 mm 5 mps 757 mmHg 62%
    17:00 +16°C° 0 mm 5 mps 757 mmHg 65%
    18:00 +15°C° 0 mm 4 mps 757 mmHg 67%
    19:00 +13°C° 0 mm 3 mps 758 mmHg 70%
    20:00 +12°C° 0 mm 3 mps 758 mmHg 73%
    21:00 +12°C° 0 mm 2 mps 759 mmHg 77%
    22:00 +9°C° 0 mm 2 mps 759 mmHg 81%
    23:00 +7°C° 0 mm 2 mps 760 mmHg 84%
    Show more